Overview Statistics Trail Chart Weather Telemetry Raw packets
 

This is the latest recevied weather packets stored in our database for station/object EA7URS-13. If no packets are shown the sender has not sent any weather packets the latest 10 day(s).

<< 110 111 112 113 114 115 >>
Time Temp. Humidity Pressure Rain* Wind** Luminosity Snow
1787826347 24.44° C 54% 1009.4 hPa 0 mm - 388 W/m² -
1787826046 24.44° C 55% 1009.4 hPa 0 mm - 620 W/m² -
1787825745 24.44° C 55% 1009.4 hPa 0 mm - 620 W/m² -
1787825443 23.33° C 58% 1009.7 hPa 0 mm - 345 W/m² -
1787825142 23.33° C 58% 1009.7 hPa 0 mm - 345 W/m² -
1787824841 23.33° C 57% 1009.8 hPa 0 mm - 224 W/m² -
1787824540 23.33° C 57% 1009.8 hPa 0 mm - 224 W/m² -
1787824239 23.33° C 57% 1009.3 hPa 0 mm - 228 W/m² -
1787823938 23.33° C 57% 1009.3 hPa 0 mm - 228 W/m² -
1787823637 22.78° C 60% 1009.3 hPa 0 mm - 370 W/m² -
1787823336 22.78° C 60% 1009.3 hPa 0 mm - 370 W/m² -
1787823035 22.78° C 63% 1008.9 hPa 0 mm - 266 W/m² -
1787822733 22.78° C 63% 1008.9 hPa 0 mm - 266 W/m² -
1787822432 22.78° C 59% 1009.1 hPa 0 mm - 178 W/m² -
1787822131 22.78° C 59% 1009.1 hPa 0 mm - 178 W/m² -
1787821830 22.22° C 65% 1009.1 hPa 0 mm - 193 W/m² -
1787821529 22.22° C 65% 1009.1 hPa 0 mm - 193 W/m² -
1787821227 22.22° C 67% 1009.1 hPa 0 mm - 312 W/m² -
1787820926 22.22° C 67% 1009.1 hPa 0 mm - 312 W/m² -
1787820625 22.22° C 69% 1009.2 hPa 0 mm - 107 W/m² -
1787820324 22.22° C 69% 1009.2 hPa 0 mm - 107 W/m² -
1787820023 21.67° C 74% 1009 hPa 0 mm - 102 W/m² -
1787819721 21.67° C 74% 1009 hPa 0 mm - 102 W/m² -
1787819419 21.67° C 74% 1008.7 hPa 0 mm - 273 W/m² -
1787819118 21.67° C 74% 1008.7 hPa 0 mm - 273 W/m² -

* Rain latest hour (hover to see other rain measurements)
** Current wind speed in m/s (hover to see current wind gust speed)